Location: Toronto
(43.6672°N, 79.4170°W)
Time: 17:19:27
(UTC-05:00)

ISS - Visible Passes

Search period start: 25 January 2015 00:00
Search period end: 04 February 2015 00:00
Orbit: 402 x 410 km, 51.6° (Epoch: 25 January)

Date Brightness Start Highest point End Pass type
(mag) Time Alt. Az. Time Alt. Az. Time Alt. Az.
25 Jan -3.2 05:44:50 72° E 05:44:50 72° E 05:47:54 10° ESE visible
26 Jan -0.1 04:55:22 15° E 04:55:22 15° E 04:56:00 10° ESE visible
26 Jan -1.9 06:28:04 21° WSW 06:29:09 25° SW 06:31:56 10° SSE visible
27 Jan -1.9 05:38:39 30° SSE 05:38:39 30° SSE 05:40:39 10° SE visible
28 Jan -0.9 06:22:02 11° SW 06:22:02 11° SW 06:22:46 10° SSW visible
03 Feb -0.9 19:25:15 10° S 19:26:00 14° S 19:26:00 14° S visible
